Location: Bannatyne
(13.0833°N, 59.5333°W)
Time: 10:30:11
(UTC+00:00)

Explorer 7 - Pass Details

Date: 25 January 2020
Orbit: 485 x 679 km, 50.3° (Epoch: 20 February)

Event Time Altitude Azimuth Distance (km) Brightness Sun altitude
Rises 10:08:41 0° 334° (NNW) 2,684 9.9 -4.6°
Reaches altitude 10° 10:10:59 10° 343° (NNW) 1,825 9.1 -4.1°
Maximum altitude 10:14:51 36° 51° (NE) 914 8.3 -3.2°
Drops below altitude 10° 10:18:56 10° 118° (ESE) 1,940 11.6 -2.3°
Sets 10:21:26 0° 126° (SE) 2,880 12.3 -1.7°
